Location: Briarstone Lake
(43.1454°N, 93.2359°W)
Time: 08:34:26
(UTC+00:00)

BlueWalker 3 - Pass Details

Date: 01 February 2026
Orbit: 450 x 461 km, 53.2° (Epoch: 11 February)

Event Time Altitude Azimuth Distance (km) Brightness Sun altitude
Rises 00:08:22 0° 296° (WNW) 2,459 6.3 -8.4°
Reaches altitude 10° 00:11:08 10° 319° (NW) 1,585 4.8 -8.9°
Maximum altitude 00:13:26 16° 359° (N) 1,262 3.8 -9.3°
Drops below altitude 10° 00:15:43 10° 39° (NE) 1,584 4.0 -9.7°
Enters shadow 00:15:52 - 41° (NE) 1,623 4.0 -9.8°
